This is the latest recevied weather packets stored in our database for station/object K7FRY. If no packets are shown the sender has not sent any weather packets the latest 10 day(s).
| Time | Temp. | Humidity | Pressure | Rain* | Wind** | Luminosity | Snow |
|---|---|---|---|---|---|---|---|
| 1777679222 | 28.89° C | 23% | 1011 hPa | 0 mm | - | 337 W/m² | - |
| 1777678919 | 29.44° C | 22% | 1011.1 hPa | 0 mm | - | 325 W/m² | - |
| 1777678618 | 29.44° C | 22% | 1011 hPa | 0 mm | - | 324 W/m² | - |
| 1777678314 | 28.89° C | 23% | 1011 hPa | 0 mm | - | 343 W/m² | - |
| 1777678010 | 28.89° C | 22% | 1011.2 hPa | 0 mm | - | 340 W/m² | - |
| 1777677708 | 29.44° C | 22% | 1011.2 hPa | 0 mm | - | 375 W/m² | - |
| 1777677406 | 29.44° C | 22% | 1011.2 hPa | 0 mm | - | 354 W/m² | - |
| 1777677103 | 28.89° C | 21% | 1011 hPa | 0 mm | - | 419 W/m² | - |
| 1777676802 | 28.89° C | 22% | 1010.9 hPa | 0 mm | - | 452 W/m² | - |
| 1777676499 | 28.89° C | 22% | 1011.2 hPa | 0 mm | - | 469 W/m² | - |
| 1777676197 | 29.44° C | 22% | 1011.2 hPa | 0 mm | - | 494 W/m² | - |
| 1777675893 | 28.89° C | 22% | 1011.3 hPa | 0 mm | - | 521 W/m² | - |
| 1777675590 | 29.44° C | 22% | 1011.3 hPa | 0 mm | - | 513 W/m² | - |
| 1777675287 | 30° C | 22% | 1011.3 hPa | 0 mm | - | 551 W/m² | - |
| 1777674984 | 29.44° C | 22% | 1011.1 hPa | 0 mm | - | 558 W/m² | - |
| 1777674681 | 29.44° C | 23% | 1011.4 hPa | 0 mm | - | 560 W/m² | - |
| 1777674386 | 30° C | 23% | 1011.3 hPa | 0 mm | - | 550 W/m² | - |
| 1777674074 | 29.44° C | 23% | 1011.4 hPa | 0 mm | - | 567 W/m² | - |
| 1777673770 | 29.44° C | 23% | 1011.3 hPa | 0 mm | - | 580 W/m² | - |
| 1777673468 | 29.44° C | 22% | 1011.4 hPa | 0 mm | - | 600 W/m² | - |
| 1777673165 | 29.44° C | 22% | 1011.6 hPa | 0 mm | - | 630 W/m² | - |
| 1777672862 | 29.44° C | 23% | 1011.5 hPa | 0 mm | - | 623 W/m² | - |
| 1777672558 | 29.44° C | 22% | 1011.8 hPa | 0 mm | - | 593 W/m² | - |
| 1777672254 | 29.44° C | 23% | 1011.8 hPa | 0 mm | - | 692 W/m² | - |
| 1777671949 | 29.44° C | 23% | 1012 hPa | 0 mm | - | 690 W/m² | - |
* Rain latest hour (hover to see other rain measurements)
** Current wind speed in m/s (hover to see current wind gust speed)